Location: Newark
(7.0858°N, 171.3717°E)
Time: 23:46:46
(UTC+00:00)

Vanguard 3 - Pass Details

Date: 28 November 2020
Orbit: 508 x 3262 km, 33.3° (Epoch: 19 January)

Event Time Altitude Azimuth Distance (km) Brightness Sun altitude
Rises 07:25:49 0° 262° (W) 3,499 12.0 -17.3°
Reaches altitude 10° 07:29:31 10° 281° (W) 2,182 10.2 -18.1°
Maximum altitude 07:32:44 18° 324° (NW) 1,493 8.7 -18.9°
Enters shadow 07:34:40 13° 358° (N) 1,616 8.5 -19.3°
